Regional Weather Roundup
Issued by NWS

Home | Current Version | Previous Version | Text Only | Print | Product List | Glossary Off
Versions: 1 2 3 4 5 6 7 8 9 10 11 12 13 14 15 16 17 18 19 20 21 22 23 24 25 26 27

000
ASUS45 KSLC 201410
RWRUT

UTAH REGIONAL WEATHER ROUNDUP
NATIONAL WEATHER SERVICE SALT LAKE CITY UT
700 AM MST MON FEB 20 2017

UTZ001>011-023>025-201500-

NORTHERN UTAH

CITY           SKY/WX    TMP DP  RH WIND       PRES   REMARKS
BRIGHAM CITY     N/A     44  35  71 S10       29.99S
HILL AFB       CLOUDY    44  34  67 S18G26    29.99R
LOGAN          CLOUDY    36  32  85 E10       29.97R WCI  28
OGDEN          CLOUDY    43  35  73 S15       29.99R
SALT LAKE CITY MOCLDY    46  34  62 S16G24    30.00R
TOOELE VALLEY  MOCLDY    46  34  61 S30       29.97F
WENDOVER       CLEAR     39  32  75 SE5       29.95R
HEBER CITY     CLOUDY    32  30  93 SE3       30.03R
WEST JORDAN    MOCLDY    46  42  87 SE20G25   30.02R

$$

UTZ011>015-024>027-201500-

CENTRAL/NORTHEAST UTAH

CITY           SKY/WX    TMP DP  RH WIND       PRES   REMARKS
PROVO AIRPORT  CLOUDY    40  34  79 SE7       30.08R
MOAB/CANYONLAN FOG       32  32 100 CALM      30.09S VSB 1/4
DELTA          PTCLDY    39  32  75 S15       30.05S WCI  31
PRICE          FOG       34  34 100 NW3       30.10R VSB 1/4
RICHFIELD      CLEAR     34  30  86 N3        30.11R
ROOSEVELT      CLOUDY    32  28  86 W6        30.12R WCI  26
VERNAL         CLOUDY    32  29  88 S3        30.08S

$$

UTZ013>016-019>022-027-201500-

SOUTHERN UTAH

CITY           SKY/WX    TMP DP  RH WIND       PRES   REMARKS
BRYCE CANYON   MOCLDY    22  20  92 CALM      30.15R
CEDAR CITY     CLOUDY    39  35  86 S10       30.09S WCI  32
MILFORD        MOCLDY    39  34  82 S12       30.07R WCI  32
ST GEORGE      CLOUDY    47  44  90 CALM      30.14R
HANKSVILLE     CLOUDY    28  28 100 CALM      30.15R VSB 1/4
KANAB          CLOUDY    41  39  93 W2        30.20R
BLANDING       MOCLDY    31  31  99 NE7       30.22R WCI  24

$$

REGIONAL REPORTS     COLORADO/ARIZONA

CITY           SKY/WX    TMP DP  RH WIND       PRES   REMARKS
CRAIG, CO      FOG       25  22  88 E6        30.10R VSB 1/2 WCI  18
GRAND JUNCTION CLOUDY    38  38 100 SE12      30.11S WCI  30
RIFLE, CO      CLOUDY    36  34  92 S3        30.13R
MONTROSE, CO   CLOUDY    29  28  96 SE7       30.17R WCI  22
CORTEZ, CO     PTCLDY    31  30  96 NE5       30.15R WCI  26
COLORADO CITY  LGT RAIN  41  41 100 NE3       30.18R
PAGE, AZ       MOCLDY    40  31  70 SW5       30.15R
GRAND CANYON   CLOUDY    34  33  96 CALM      30.19R
KINGMAN, AZ    CLOUDY    45  39  79 CALM      30.16R
FLAGSTAFF, AZ  CLOUDY    33  29  85 W7        30.20R WCI  27

$$

REGIONAL REPORTS    NEVADA/IDAHO/WYOMING

CITY           SKY/WX    TMP DP  RH WIND       PRES   REMARKS
LAS VEGAS, NV  CLOUDY    55  44  66 S8        30.06R
ELY, NY        MOCLDY    37  30  75 S12       30.04R WCI  29
ELKO, NV       MOCLDY    41  32  70 SW12      29.89R
POCATELLO, ID  CLOUDY    41  33  73 S13       29.86F
BURLEY, ID     CLOUDY    45  34  65 SW17      29.84F
FORT BRIDGER,    N/A     29  21  73 CALM      30.01S
EVANSTON, WY   CLOUDY    25  21  85 SW12      29.99R WCI  14
ROCK SPRINGS,  CLOUDY    30  22  72 CALM      29.99S

$$




USA.gov is the U.S. government's official web portal to all federal, state and local government web resources and services.